Location: Düngen
(52.0952°N, 10.0219°E)
Time: 04:16:34
(UTC+00:00)

Cosmos 2026 Rocket - Visible Passes

Search period start: 06 June 2026 00:00
Search period end: 16 June 2026 00:00
Orbit: 939 x 999 km, 82.9° (Epoch: 5 June)

Date Brightness Start Highest point End Pass type
(mag) Time Alt. Az. Time Alt. Az. Time Alt. Az.
6 Jun 6.3 20:34:52 10° NNW 20:39:30 22° W 20:44:04 10° SW visible
7 Jun 6.6 20:59:28 10° NW 21:02:19 13° WNW 21:05:08 10° W visible
10 Jun 6.5 20:23:36 10° NW 20:27:25 17° WNW 20:31:12 10° WSW visible
